• In Hungary
  • List of Countries
  • For 7 days
  • Water Temperature
  • Satellite Maps
  • Weather Map
  • News
  • Weather Widgets
  • user-avatar
    Login

    Hourly Weather Multan

    Today, 22 September, Friday

    Time Temperature Precipitation Wind Pressure Humidity
    00:00 +30°C° 0 mm 1 mps 741 mmHg 14%
    01:00 +30°C° 0 mm 1 mps 741 mmHg 15%
    02:00 +29°C° 0 mm 1 mps 741 mmHg 15%
    03:00 +29°C° 0 mm 1 mps 741 mmHg 15%
    04:00 +29°C° 0 mm 1 mps 742 mmHg 15%
    05:00 +28°C° 0 mm 1 mps 741 mmHg 16%
    06:00 +30°C° 0 mm 1 mps 742 mmHg 15%
    07:00 +32°C° 0 mm 2 mps 742 mmHg 14%
    08:00 +35°C° 0 mm 2 mps 743 mmHg 12%
    09:00 +37°C° 0 mm 2 mps 743 mmHg 11%
    10:00 +40°C° 0 mm 2 mps 743 mmHg 9%
    11:00 +42°C° 0 mm 2 mps 743 mmHg 9%
    12:00 +43°C° 0 mm 2 mps 743 mmHg 9%
    13:00 +43°C° 0 mm 2 mps 742 mmHg 8%
    14:00 +45°C° 0 mm 2 mps 742 mmHg 7%
    15:00 +45°C° 0 mm 2 mps 741 mmHg 7%
    16:00 +43°C° 0 mm 2 mps 741 mmHg 7%
    17:00 +43°C° 0 mm 2 mps 741 mmHg 7%
    18:00 +40°C° 0 mm 2 mps 741 mmHg 9%
    19:00 +36°C° 0 mm 1 mps 741 mmHg 10%
    20:00 +34°C° 0 mm 1 mps 741 mmHg 12%
    21:00 +33°C° 0 mm 1 mps 741 mmHg 12%
    22:00 +32°C° 0 mm 1 mps 741 mmHg 13%
    23:00 +31°C° 0 mm 1 mps 742 mmHg 13%

    Tomorrow, 23 September, Saturday

    Time Temperature Precipitation Wind Pressure Humidity
    00:00 +31°C° 0 mm 1 mps 742 mmHg 14%
    01:00 +30°C° 0 mm 1 mps 741 mmHg 15%
    02:00 +30°C° 0 mm 1 mps 741 mmHg 15%
    03:00 +29°C° 0 mm 1 mps 741 mmHg 16%
    04:00 +29°C° 0 mm 2 mps 742 mmHg 17%
    05:00 +28°C° 0 mm 2 mps 742 mmHg 17%
    06:00 +30°C° 0 mm 2 mps 742 mmHg 17%
    07:00 +32°C° 0 mm 2 mps 743 mmHg 16%
    08:00 +34°C° 0 mm 2 mps 743 mmHg 15%
    09:00 +37°C° 0 mm 2 mps 743 mmHg 13%
    10:00 +40°C° 0 mm 2 mps 743 mmHg 10%
    11:00 +43°C° 0 mm 2 mps 743 mmHg 8%
    12:00 +45°C° 0 mm 2 mps 743 mmHg 7%
    13:00 +45°C° 0 mm 2 mps 742 mmHg 6%
    14:00 +46°C° 0 mm 2 mps 742 mmHg 5%
    15:00 +46°C° 0 mm 2 mps 742 mmHg 5%
    16:00 +45°C° 0 mm 2 mps 741 mmHg 5%
    17:00 +45°C° 0 mm 2 mps 741 mmHg 5%
    18:00 +41°C° 0 mm 2 mps 741 mmHg 7%
    19:00 +38°C° 0 mm 2 mps 742 mmHg 9%
    20:00 +35°C° 0 mm 2 mps 742 mmHg 10%
    21:00 +34°C° 0 mm 3 mps 742 mmHg 13%
    22:00 +33°C° 0 mm 3 mps 742 mmHg 16%
    23:00 +31°C° 0 mm 3 mps 743 mmHg 19%

    Day after tomorrow, 24 September, Sunday

    Time Temperature Precipitation Wind Pressure Humidity
    00:00 +31°C° 0 mm 3 mps 743 mmHg 23%
    01:00 +30°C° 0 mm 3 mps 743 mmHg 26%
    02:00 +29°C° 0 mm 3 mps 743 mmHg 30%
    03:00 +29°C° 0 mm 3 mps 743 mmHg 33%
    04:00 +29°C° 0 mm 3 mps 743 mmHg 36%
    05:00 +28°C° 0 mm 2 mps 743 mmHg 39%
    06:00 +29°C° 0 mm 3 mps 744 mmHg 38%
    07:00 +31°C° 0 mm 3 mps 744 mmHg 36%
    08:00 +33°C° 0 mm 3 mps 745 mmHg 35%
    09:00 +36°C° 0 mm 3 mps 745 mmHg 29%
    10:00 +38°C° 0 mm 3 mps 745 mmHg 24%
    11:00 +40°C° 0 mm 3 mps 745 mmHg 18%
    12:00 +43°C° 0 mm 3 mps 745 mmHg 16%
    13:00 +44°C° 0 mm 3 mps 744 mmHg 13%
    14:00 +45°C° 0 mm 3 mps 743 mmHg 11%
    15:00 +44°C° 0 mm 3 mps 743 mmHg 11%
    16:00 +43°C° 0 mm 2 mps 743 mmHg 11%
    17:00 +43°C° 0 mm 2 mps 743 mmHg 11%
    18:00 +40°C° 0 mm 2 mps 743 mmHg 13%
    19:00 +36°C° 0 mm 1 mps 743 mmHg 16%
    20:00 +34°C° 0 mm 1 mps 743 mmHg 19%
    21:00 +33°C° 0 mm 1 mps 743 mmHg 20%
    22:00 +32°C° 0 mm 1 mps 743 mmHg 21%
    23:00 +32°C° 0 mm 1 mps 743 mmHg 22%

    25 September, Monday

    Time Temperature Precipitation Wind Pressure Humidity
    00:00 +31°C° 0 mm 2 mps 743 mmHg 24%
    01:00 +31°C° 0 mm 2 mps 743 mmHg 25%
    02:00 +30°C° 0 mm 2 mps 743 mmHg 26%
    03:00 +30°C° 0 mm 2 mps 743 mmHg 29%
    04:00 +30°C° 0 mm 2 mps 743 mmHg 31%
    05:00 +30°C° 0 mm 3 mps 743 mmHg 33%
    06:00 +31°C° 0 mm 3 mps 743 mmHg 32%
    07:00 +34°C° 0 mm 3 mps 744 mmHg 31%
    08:00 +35°C° 0 mm 3 mps 744 mmHg 30%
    09:00 +38°C° 0 mm 3 mps 744 mmHg 25%
    10:00 +40°C° 0 mm 3 mps 744 mmHg 21%
    11:00 +43°C° 0 mm 3 mps 744 mmHg 17%
    12:00 +44°C° 0 mm 3 mps 744 mmHg 15%
    13:00 +45°C° 0 mm 3 mps 743 mmHg 13%
    14:00 +46°C° 0 mm 3 mps 742 mmHg 11%
    15:00 +45°C° 0 mm 3 mps 742 mmHg 11%
    16:00 +45°C° 0 mm 3 mps 741 mmHg 11%
    17:00 +43°C° 0 mm 2 mps 741 mmHg 11%
    18:00 +42°C° 0 mm 3 mps 741 mmHg 14%
    19:00 +38°C° 0 mm 3 mps 742 mmHg 17%
    20:00 +36°C° 0 mm 3 mps 742 mmHg 19%
    21:00 +35°C° 0 mm 3 mps 742 mmHg 22%
    22:00 +35°C° 0 mm 4 mps 742 mmHg 25%
    23:00 +34°C° 0 mm 4 mps 742 mmHg 28%

    26 September, Tuesday

    Time Temperature Precipitation Wind Pressure Humidity
    00:00 +34°C° 0 mm 4 mps 742 mmHg 28%
    01:00 +33°C° 0 mm 4 mps 742 mmHg 28%
    02:00 +33°C° 0 mm 4 mps 742 mmHg 29%
    03:00 +32°C° 0 mm 4 mps 742 mmHg 30%
    04:00 +32°C° 0 mm 4 mps 742 mmHg 31%
    05:00 +32°C° 0 mm 4 mps 742 mmHg 32%
    06:00 +33°C° 0 mm 4 mps 743 mmHg 30%
    07:00 +34°C° 0 mm 4 mps 744 mmHg 28%
    08:00 +36°C° 0 mm 4 mps 744 mmHg 26%
    09:00 +38°C° 0 mm 4 mps 744 mmHg 22%
    10:00 +42°C° 0 mm 3 mps 744 mmHg 18%
    11:00 +44°C° 0 mm 3 mps 744 mmHg 15%
    12:00 +45°C° 0 mm 3 mps 744 mmHg 13%
    13:00 +45°C° 0 mm 3 mps 743 mmHg 12%
    14:00 +46°C° 0 mm 3 mps 742 mmHg 11%
    15:00 +45°C° 0 mm 3 mps 742 mmHg 11%
    16:00 +45°C° 0 mm 3 mps 742 mmHg 11%
    17:00 +44°C° 0 mm 3 mps 742 mmHg 12%
    18:00 +42°C° 0 mm 3 mps 742 mmHg 15%
    19:00 +39°C° 0 mm 3 mps 743 mmHg 17%
    20:00 +37°C° 0 mm 3 mps 743 mmHg 20%
    21:00 +36°C° 0 mm 3 mps 743 mmHg 22%
    22:00 +35°C° 0 mm 3 mps 743 mmHg 24%
    23:00 +35°C° 0 mm 4 mps 744 mmHg 26%

    27 September, Wednesday

    Time Temperature Precipitation Wind Pressure Humidity
    00:00 +34°C° 0 mm 4 mps 743 mmHg 27%
    01:00 +34°C° 0 mm 4 mps 743 mmHg 29%
    02:00 +33°C° 0 mm 4 mps 743 mmHg 31%
    03:00 +33°C° 0 mm 4 mps 743 mmHg 32%
    04:00 +33°C° 0 mm 3 mps 744 mmHg 34%
    05:00 +31°C° 0 mm 3 mps 744 mmHg 35%
    06:00 +34°C° 0 mm 4 mps 744 mmHg 32%
    07:00 +35°C° 0 mm 4 mps 745 mmHg 29%
    08:00 +37°C° 0 mm 5 mps 745 mmHg 26%
    09:00 +40°C° 0 mm 4 mps 745 mmHg 22%
    10:00 +42°C° 0 mm 4 mps 745 mmHg 18%
    11:00 +44°C° 0 mm 3 mps 745 mmHg 14%
    12:00 +45°C° 0 mm 3 mps 745 mmHg 13%
    13:00 +45°C° 0 mm 3 mps 744 mmHg 12%
    14:00 +46°C° 0 mm 2 mps 743 mmHg 11%
    15:00 +45°C° 0 mm 3 mps 743 mmHg 12%
    16:00 +44°C° 0 mm 3 mps 743 mmHg 13%
    17:00 +43°C° 0 mm 3 mps 743 mmHg 14%
    18:00 +40°C° 0 mm 3 mps 743 mmHg 16%
    19:00 +38°C° 0 mm 3 mps 743 mmHg 18%
    20:00 +36°C° 0 mm 3 mps 744 mmHg 21%
    21:00 +36°C° 0 mm 3 mps 744 mmHg 22%
    22:00 +35°C° 0 mm 3 mps 744 mmHg 23%
    23:00 +34°C° 0 mm 3 mps 744 mmHg 24%
    Show more